Date String (YYYY-MM-DD hh:mm:ss) UTC,Instrument flags,absolute air pressure of the measurement (hPa),sample flow rate (lpm),inlet stack bypass flow (lpm),air temperature of the measurement (°C),ambient temperature measured by the external sensor (°C),aerosol sample conditioner tube jacket temperature (°C),OPC LED temperature (°C),internal box temperature (°C),relative humidity of the measurement (%),span deviation,mass concentration of particles derived from Lorenz-Mie calculation of OPC scattering (μg/m³),mass concentration of particles derived from Lorenz-Mie calculation of OPC scattering (μg/m³),mass concentration of particles derived from Lorenz-Mie calculation of OPC scattering (μg/m³)
DateTimeUTC,F1_M11,P_M11,Q1_M11,Q2_M11,T1_M11,T2_M11,T3_M11,T4_M11,T5_M11,U1_M11,ZSPAN_M11,X0_M11,X2_M11,X1_M11
2024-03-30 14:00:00,SystemResetWarning,0823.7,5.00,000.00,020.0,019.4,000.0,028.5,021.8,29.8,-000.7,0013.00,0009.00,0008.54
2024-03-30 14:01:00,SystemResetWarning,0823.7,5.00,000.00,020.0,019.4,000.0,028.6,021.8,30.4,-000.6,0012.87,0008.96,0008.49
2024-03-30 14:02:00,SystemResetWarning,0823.6,5.00,000.00,020.0,019.4,000.0,028.5,021.8,30.7,-000.2,0012.83,0008.98,0008.49
2024-03-30 14:03:00,SystemResetWarning,0823.6,5.00,000.00,020.0,019.4,000.0,028.5,021.8,30.7,-000.3,0012.82,0008.97,0008.47
2024-03-30 14:04:00,SystemResetWarning,0823.6,5.00,000.00,020.0,019.4,000.0,028.5,021.8,30.6,-000.6,0012.85,0009.00,0008.48
2024-03-30 14:05:00,SystemResetWarning,0823.5,5.00,000.00,020.0,019.4,000.0,028.5,021.8,30.7,-000.4,0012.25,0009.00,0008.48
2024-03-30 14:06:00,SystemResetWarning,0823.5,5.01,000.00,020.0,019.4,000.0,028.5,021.8,30.4,-000.0,0011.75,0008.98,0008.49
2024-03-30 14:07:00,SystemResetWarning,0823.6,5.00,000.00,020.0,019.4,000.0,028.5,021.8,30.2,-000.2,0011.81,0009.01,0008.53
2024-03-30 14:08:00,SystemResetWarning,0823.6,4.99,000.00,020.0,019.4,000.0,028.5,021.8,30.0,-000.2,0011.99,0009.12,0008.61
2024-03-30 14:09:00,SystemResetWarning,0823.6,5.00,000.00,020.0,019.4,000.0,028.5,021.8,29.8,-000.6,0012.15,0009.21,0008.68
2024-03-30 14:10:00,SystemResetWarning,0823.7,5.00,000.00,020.0,019.4,000.0,028.5,021.8,29.7,-001.0,0012.35,0009.25,0008.73
2024-03-30 14:11:00,SystemResetWarning,0823.6,5.00,000.00,020.0,019.4,000.0,028.5,021.8,29.8,-001.4,0012.27,0009.26,0008.79
2024-03-30 14:12:00,SystemResetWarning,0823.5,5.00,000.00,020.0,019.4,000.0,028.5,021.8,29.8,-001.7,0012.28,0009.30,0008.82
2024-03-30 14:13:00,SystemResetWarning,0823.6,5.00,000.00,020.0,019.4,000.0,028.5,021.8,29.7,-001.8,0012.30,0009.29,0008.81
2024-03-30 14:14:00,SystemResetWarning,0823.6,5.00,000.00,020.0,019.4,000.0,028.5,021.8,29.4,-001.8,0012.37,0009.31,0008.81
2024-03-30 14:15:00,SystemResetWarning,0823.6,4.99,000.00,020.0,019.4,000.0,028.5,021.8,29.1,-001.4,0012.80,0009.29,0008.79
2024-03-30 14:16:00,SystemResetWarning,0823.6,5.00,000.00,020.0,019.4,000.0,028.5,021.8,28.8,-001.3,0012.88,0009.25,0008.78
2024-03-30 14:17:00,SystemResetWarning,0823.6,5.01,000.00,020.0,019.4,000.0,028.5,021.8,28.5,-001.5,0012.92,0009.28,0008.81
2024-03-30 14:18:00,SystemResetWarning,0823.6,5.00,000.00,020.0,019.4,000.0,028.5,021.8,28.9,-001.3,0012.93,0009.30,0008.83
2024-03-30 14:19:00,SystemResetWarning,0823.5,5.00,000.00,020.0,019.4,000.0,028.5,021.8,29.0,-001.1,0012.74,0009.26,0008.83
2024-03-30 14:20:00,SystemResetWarning,0823.5,5.00,000.00,020.0,019.4,000.0,028.5,021.8,29.1,-000.9,0012.65,0009.27,0008.86
2024-03-30 14:21:00,SystemResetWarning,0823.5,5.00,000.00,020.0,019.4,000.0,028.5,021.8,29.2,-000.9,0012.49,0009.33,0008.92
2024-03-30 14:22:00,SystemResetWarning,0823.5,4.99,000.00,020.0,019.4,000.0,028.5,021.8,28.8,-000.7,0012.65,0009.47,0009.03
2024-03-30 14:23:00,SystemResetWarning,0823.6,5.00,000.00,020.0,019.4,000.0,028.5,021.8,28.8,-000.5,0012.77,0009.60,0009.15
2024-03-30 14:24:00,SystemResetWarning,0823.7,5.00,000.00,020.0,019.4,000.0,028.5,021.8,29.1,-000.6,0013.30,0009.67,0009.25
2024-03-30 14:25:00,SystemResetWarning,0823.6,5.00,000.00,020.0,019.4,000.0,028.5,021.8,29.3,-000.2,0013.48,0009.77,0009.37
2024-03-30 14:26:00,SystemResetWarning,0823.6,5.00,000.00,020.0,019.4,000.0,028.5,021.8,29.6,-000.5,0013.12,0009.87,0009.47
2024-03-30 14:27:00,SystemResetWarning,0823.5,4.99,000.00,020.0,019.4,000.0,028.5,021.8,29.8,-000.7,0013.13,0010.01,0009.58
2024-03-30 14:28:00,SystemResetWarning,0823.5,5.00,000.00,020.0,019.4,000.0,028.5,021.8,29.4,-001.0,0013.26,0010.11,0009.66
2024-03-30 14:29:00,SystemResetWarning,0823.5,5.00,000.00,020.0,019.4,000.0,028.5,021.8,29.9,-001.1,0013.42,0010.22,0009.72
2024-03-30 14:30:00,SystemResetWarning,0823.5,5.00,000.00,020.0,019.4,000.0,028.5,021.8,29.2,-000.9,0013.58,0010.34,0009.81
2024-03-30 14:31:00,SystemResetWarning,0823.5,5.00,000.00,020.0,019.4,000.0,028.5,021.8,28.9,-000.8,0013.65,0010.43,0009.90
2024-03-30 14:32:00,SystemResetWarning,0823.5,5.00,000.00,020.0,019.4,000.0,028.5,021.8,28.9,-000.8,0013.76,0010.48,0009.94
2024-03-30 14:33:00,SystemResetWarning,0823.5,5.00,000.00,020.0,019.4,000.0,028.5,021.8,29.1,-001.1,0013.79,0010.44,0009.93
2024-03-30 14:34:00,SystemResetWarning,0823.5,5.00,000.00,020.0,019.4,000.0,028.5,021.8,29.5,-000.9,0013.73,0010.41,0009.91
2024-03-30 14:35:00,SystemResetWarning,0823.6,5.01,000.00,020.0,019.5,000.0,028.5,021.8,28.9,-001.0,0013.43,0010.46,0009.94
2024-03-30 14:36:00,SystemResetWarning,0823.7,5.00,000.00,020.0,019.5,000.0,028.5,021.8,28.8,-001.4,0013.46,0010.48,0009.97
2024-03-30 14:37:00,SystemResetWarning,0823.7,5.00,000.00,020.0,019.5,000.0,028.5,021.8,29.3,-001.6,0013.44,0010.45,0009.96
2024-03-30 14:38:00,SystemResetWarning,0823.8,5.00,000.00,020.0,019.5,000.0,028.5,021.8,29.3,-001.6,0013.43,0010.44,0009.97
2024-03-30 14:39:00,SystemResetWarning,0823.7,5.00,000.00,020.0,019.5,000.0,028.5,021.8,29.0,-001.4,0013.43,0010.43,0009.97
2024-03-30 14:40:00,SystemResetWarning,0823.6,4.99,000.00,020.0,019.5,000.0,028.5,021.8,29.2,-001.1,0013.33,0010.39,0009.96
2024-03-30 14:41:00,SystemResetWarning,0823.6,4.99,000.00,020.0,019.5,000.0,028.5,021.8,29.5,-001.4,0013.27,0010.30,0009.89
2024-03-30 14:42:00,SystemResetWarning,0823.6,5.01,000.00,020.0,019.5,000.0,028.5,021.8,29.6,-001.5,0013.27,0010.22,0009.81
2024-03-30 14:43:00,SystemResetWarning,0823.7,5.01,000.00,020.1,019.5,000.0,028.5,021.9,29.4,-001.4,0013.12,0010.17,0009.79
2024-03-30 14:44:00,SystemResetWarning,0823.7,5.00,000.00,020.1,019.5,000.0,028.5,021.9,30.2,-001.4,0013.45,0010.18,0009.76
2024-03-30 14:45:00,SystemResetWarning,0823.7,5.00,000.00,020.1,019.5,000.0,028.5,021.9,30.5,-001.4,0013.44,0010.16,0009.72
2024-03-30 14:46:00,SystemResetWarning,0823.7,4.99,000.00,020.1,019.5,000.0,028.5,021.9,30.2,-001.2,0013.15,0010.10,0009.66
2024-03-30 14:47:00,SystemResetWarning,0823.7,4.99,000.00,020.1,019.5,000.0,028.5,021.9,30.0,-000.8,0013.36,0010.06,0009.61
2024-03-30 14:48:00,SystemResetWarning,0823.8,4.99,000.00,020.1,019.5,000.0,028.5,021.9,29.7,-000.7,0013.34,0010.02,0009.57
2024-03-30 14:49:00,SystemResetWarning,0823.7,5.02,000.00,020.1,019.5,000.0,028.5,021.9,29.3,-000.6,0013.24,0009.97,0009.51
2024-03-30 14:50:00,SystemResetWarning,0823.7,5.01,000.00,020.1,019.5,000.0,028.5,021.9,29.8,-000.7,0013.11,0009.84,0009.37
2024-03-30 14:51:00,SystemResetWarning,0823.7,4.99,000.00,020.1,019.5,000.0,028.5,021.9,30.0,-001.0,0013.05,0009.68,0009.20
2024-03-30 14:52:00,SystemResetWarning,0823.7,4.99,000.00,020.1,019.6,000.0,028.6,021.9,29.8,-001.2,0013.00,0009.50,0009.03
2024-03-30 14:53:00,SystemResetWarning,0823.8,5.00,000.00,020.1,019.6,000.0,028.6,021.9,29.9,-000.9,0012.78,0009.30,0008.84
2024-03-30 14:54:00,SystemResetWarning,0823.8,5.00,000.00,020.1,019.6,000.0,028.6,021.9,29.6,-001.0,0012.64,0009.11,0008.66
2024-03-30 14:55:00,SystemResetWarning,0823.8,5.00,000.00,020.1,019.6,000.0,028.6,021.9,29.6,-001.0,0012.12,0008.89,0008.46
2024-03-30 14:56:00,SystemResetWarning,0823.8,5.00,000.00,020.1,019.6,000.0,028.6,021.9,29.7,-001.0,0012.06,0008.70,0008.28
2024-03-30 14:57:00,SystemResetWarning,0823.8,5.00,000.00,020.1,019.6,000.0,028.6,021.9,29.5,-001.2,0012.03,0008.49,0008.08
2024-03-30 14:58:00,SystemResetWarning,0823.7,5.00,000.00,020.1,019.6,000.0,028.6,021.9,29.6,-001.2,0011.54,0008.27,0007.86
2024-03-30 14:59:00,SystemResetWarning,0823.7,5.00,000.00,020.1,019.6,000.0,028.6,021.9,29.2,-001.1,0011.36,0008.10,0007.67
